Location: Jarosław
(50.0191°N, 22.6835°E)
Time: 04:27:35
(UTC+01:00)

ISS - Visible Passes

Search period start: 21 March 2019 00:00
Search period end: 31 March 2019 00:00
Orbit: 406 x 411 km, 51.6° (Epoch: 21 March)

Date Brightness Start Highest point End Pass type
(mag) Time Alt. Az. Time Alt. Az. Time Alt. Az.
21 Mar -1.6 18:55:11 10° SSE 18:56:04 12° SSE 18:56:04 12° SSE visible
22 Mar -2.5 19:38:45 10° SW 19:40:42 28° SSW 19:40:42 28° SSW visible
23 Mar -2.6 18:48:07 10° SSW 18:50:54 25° SE 18:52:19 19° ESE visible
23 Mar -1.5 20:23:53 10° WSW 20:25:05 21° WSW 20:25:05 21° WSW visible
24 Mar -3.9 19:32:50 10° WSW 19:36:06 68° SSE 19:36:30 59° ESE visible
25 Mar -3.4 18:41:52 10° SW 18:45:03 46° SSE 18:47:47 13° E visible
25 Mar -2.5 20:18:16 10° W 20:20:31 39° W 20:20:31 39° W visible
26 Mar -3.8 19:27:06 10° WSW 19:30:24 81° NNW 19:31:39 35° ENE visible
26 Mar -0.7 21:03:50 10° WNW 21:04:24 14° WNW 21:04:24 14° WNW visible
27 Mar -3.8 18:35:57 10° WSW 18:39:16 79° SSE 18:42:34 10° ENE visible
27 Mar -3.1 20:12:38 10° W 20:15:26 53° NW 20:15:26 53° NW visible
28 Mar -3.5 19:21:26 10° W 19:24:43 65° N 19:26:23 26° ENE visible
28 Mar -1.1 20:58:06 10° WNW 20:59:07 18° WNW 20:59:07 18° WNW visible
29 Mar -3.6 18:30:12 10° W 18:33:31 74° N 18:36:49 10° ENE visible
29 Mar -3.6 20:06:56 10° WNW 20:10:01 67° NNW 20:10:01 67° NNW visible
30 Mar -3.5 19:15:43 10° W 19:19:01 64° N 19:20:53 23° E visible
30 Mar -1.4 20:52:20 10° WNW 20:53:37 21° W 20:53:37 21° W visible
